Weather History for Guymon, OK

Change the Weather History Date:

Saturday, June 8, 2013

  Actual Average Record
Temperature  
Mean Temperature 74 °F 72 °F  
Max Temperature 90 °F 85 °F 97 °F (2011)
Min Temperature 58 °F 59 °F 40 °F (2007)
Degree Days  
Heating Degree Days 0 0  
Month to date heating degree days 0 6  
Since 1 June heating degree days 0 6  
Since 1 July heating degree days 4311 4455  
Cooling Degree Days 9 7  
Month to date cooling degree days 55 52  
Year to date cooling degree days 259 160  
Since 1 June cooling degree days 55 52  
Growing Degree Days 24 (Base 50)    
Moisture  
Dew Point 55 °F    
Average Humidity 63    
Maximum Humidity 93    
Minimum Humidity 32    
Precipitation  
Precipitation 0.00 in 0.13 in 0.59 in (2001)
Month to date precipitation 0.81 0.97  
Year to date precipitation 3.16 7.22  
Snow  
Snow 0.00 in - - ()
Month to date snowfall T  
Since 1 June snowfall T  
Since 1 July snowfall 22.3  
Snow Depth 0.00 in    
Sea Level Pressure  
Sea Level Pressure 29.68 in    
Wind  
Wind Speed 17 mph (SSW)    
Max Wind Speed 35 mph    
Max Gust Speed 41 mph    
Visibility 10 miles    
Events Thunderstorm    
T = Trace of Precipitation, MM = Missing Value Source: NWS Daily Summary

Daily Weather History Graph

Daily Weather History Graph

Search for Another Location

Airport:

Trip Planner

Search our weather history database for the weather conditions in past years. The results will help you decide how hot, cold, wet, or windy it might be!

Date:

Astronomy

Jun. 08, 2013 Rise Set
Actual Time 6:27 AM CDT 9:03 PM CDT
Civil Twilight 5:56 AM CDT 9:33 PM CDT
Nautical Twilight 5:18 AM CDT 10:11 PM CDT
Astronomical Twilight 4:36 AM CDT 10:54 PM CDT
Moon 6:34 AM CDT (6/8) 9:08 PM CDT (6/8)
Length of Visible Light 15h 37m
Length of Day
14h 36m
New Moon, 0% of the Moon is Illuminated
Jun 8
New Moon
Jun 16
First Quarter
Jun 23
Full
Jun 29
Last Quarter
Jul 8
New

Hourly Weather History & Observations

Time (CDT) Temp. Heat Index Dew Point Humidity Pressure Visibility Wind Dir Wind Speed Gust Speed Precip Events Conditions
12:53 AM 66.0 °F - 53.1 °F 63% 29.75 in 10.0 mi SSW 25.3 mph 34.5 mph N/A   Clear
1:53 AM 66.0 °F - 55.0 °F 68% 29.73 in 10.0 mi SSW 20.7 mph - N/A   Clear
2:53 AM 64.0 °F - 55.0 °F 73% 29.72 in 10.0 mi SW 19.6 mph 25.3 mph N/A   Clear
3:53 AM 63.0 °F - 55.0 °F 75% 29.71 in 10.0 mi SW 11.5 mph - N/A   Clear
4:53 AM 61.0 °F - 55.0 °F 81% 29.71 in 10.0 mi SW 12.7 mph - N/A   Clear
5:53 AM 60.1 °F - 55.0 °F 83% 29.71 in 10.0 mi South 9.2 mph - N/A   Clear
6:53 AM 57.9 °F - 55.0 °F 90% 29.72 in 10.0 mi South 5.8 mph - N/A   Clear
7:53 AM 62.1 °F - 55.9 °F 80% 29.71 in 10.0 mi South 16.1 mph - N/A   Clear
8:53 AM 69.1 °F - 55.9 °F 63% 29.67 in 10.0 mi SSW 24.2 mph 28.8 mph N/A   Clear
9:53 AM 73.9 °F - 55.9 °F 53% 29.64 in 10.0 mi SSW 21.9 mph 31.1 mph N/A   Clear
10:53 AM 78.1 °F - 55.0 °F 45% 29.62 in 10.0 mi South 26.5 mph 38.0 mph N/A   Clear
11:53 AM 81.0 °F 80.8 °F 55.9 °F 42% 29.62 in 10.0 mi SSW 28.8 mph 35.7 mph N/A   Clear
12:53 PM 84.0 °F 83.3 °F 57.0 °F 40% 29.59 in 10.0 mi SSW 24.2 mph 34.5 mph N/A   Clear
1:53 PM 87.1 °F 85.9 °F 57.0 °F 36% 29.56 in 10.0 mi SSW 24.2 mph 31.1 mph N/A   Clear
2:53 PM 82.9 °F 82.6 °F 57.9 °F 42% 29.57 in 10.0 mi SSW 20.7 mph 28.8 mph N/A   Clear
3:53 PM 87.1 °F 86.5 °F 59.0 °F 39% 29.61 in 10.0 mi SSW 17.3 mph - N/A   Clear
4:53 PM 87.1 °F 86.7 °F 60.1 °F 40% 29.59 in 10.0 mi South 19.6 mph - N/A   Clear
5:53 PM 90.0 °F 87.9 °F 55.0 °F 30% 29.58 in 10.0 mi SW 15.0 mph 21.9 mph N/A   Clear
6:53 PM 89.1 °F 87.1 °F 55.0 °F 31% 29.60 in 10.0 mi North 13.8 mph 19.6 mph N/A   Mostly Cloudy
7:05 PM 86.0 °F - 51.8 °F 31% 29.73 in 10.0 mi North 31.1 mph 41.4 mph N/A Thunderstorm Mostly Cloudy
7:35 PM 84.2 °F - 51.8 °F 33% 29.76 in 10.0 mi North 31.1 mph 41.4 mph N/A   Partly Cloudy
7:53 PM 82.9 °F - 52.0 °F 34% 29.64 in 10.0 mi NNE 28.8 mph 35.7 mph N/A   Clear
8:53 PM 75.9 °F - 50.0 °F 40% 29.70 in 10.0 mi NNE 17.3 mph - N/A   Clear
9:53 PM 73.0 °F - 53.1 °F 49% 29.75 in 10.0 mi ENE 11.5 mph - N/A   Clear
10:53 PM 71.1 °F - 57.9 °F 63% 29.81 in 10.0 mi ENE 9.2 mph - N/A   Clear
11:53 PM 69.1 °F - 59.0 °F 70% 29.83 in 10.0 mi ENE 9.2 mph - N/A   Clear